Location: Karcze
(52.0945°N, 22.4786°E)
Time: 07:34:24
(UTC+00:00)

Transit 2A Rocket - Pass Details

Date: 30 July 2021
Orbit: 586 x 917 km, 66.7° (Epoch: 24 September)

Event Time Altitude Azimuth Distance (km) Brightness Sun altitude
Rises 18:46:29 0° 316° (NW) 3,115 10.5 -3.7°
Reaches altitude 10° 18:49:16 10° 332° (NNW) 2,255 8.7 -4.1°
Maximum altitude 18:53:16 22° 23° (NNE) 1,662 7.0 -4.6°
Drops below altitude 10° 18:57:32 10° 73° (ENE) 2,423 7.3 -5.1°
Sets 19:00:39 0° 88° (E) 3,413 7.9 -5.5°
